Location: Pinon Hills
(34.4429°N, 117.6403°W)
Time: 15:06:58
(UTC-08:00)

Uosat F - Visible Passes

Search period start: 02 March 2015 00:00
Search period end: 12 March 2015 01:00
Orbit: 752 x 761 km, 98.7° (Epoch: 02 March)

Date Brightness Start Highest point End Pass type
(mag) Time Alt. Az. Time Alt. Az. Time Alt. Az.
02 Mar 13.9 03:23:55 10° ENE 03:26:21 14° E 03:29:03 10° SE visible
02 Mar 11.1 05:00:37 10° N 05:05:34 54° WNW 05:10:26 10° SSW visible
03 Mar 11.6 04:21:21 10° NNE 04:26:20 58° E 04:31:17 10° S visible
04 Mar 13.3 03:42:59 10° NE 03:46:51 23° E 03:50:50 10° SSE visible
04 Mar 11.7 05:21:10 10° N 05:25:43 34° WNW 05:30:12 10° SW visible
05 Mar 11.0 04:41:31 10° NNE 04:46:36 87° W 04:51:38 10° SSW visible
06 Mar 12.5 04:02:38 10° NNE 04:07:16 36° E 04:11:54 10° SSE visible
06 Mar 12.3 05:41:59 10° NNW 05:45:51 22° WNW 05:49:35 10° WSW visible
07 Mar 13.9 03:25:08 10° ENE 03:27:37 14° E 03:30:22 10° SE visible
07 Mar 11.2 05:01:53 10° N 05:06:49 54° WNW 05:11:41 10° SSW visible
08 Mar 11.6 05:22:36 10° NNE 05:27:36 59° E 05:32:33 10° S visible
09 Mar 13.3 04:44:13 10° NE 04:48:07 23° E 04:52:07 10° SSE visible
09 Mar 11.7 06:22:26 10° N 06:26:59 34° WNW 06:31:26 10° SW visible
10 Mar 11.0 05:42:47 10° NNE 05:47:51 85° WNW 05:52:53 10° SSW visible
11 Mar 12.5 05:03:53 10° NNE 05:08:31 37° E 05:13:09 10° SSE visible
